Probability
0 0 0 0 0 0 0 0 0 0 0 0 0 0 0 0 0 0 0 0 0 0 0 0 0 0 0 0 0 0 0 0 0 0 0 0 0 0 0 0 0 0 0 0
0 0 0 0 0 0 0 0 0 0 0 0 0 0 0 0 0 0 0 0 0 0 0 0 0 0 0 0 0 0 0 0 0 0 0 0 0 0 0 0 0 0 0 0
0 0 0 0 0 0 0 0 0 0 0 0 0 0 0 0 0 0 0 0 0 0 0 0 0 0 0 0 0 0 0 0 0 0 0 0 0 0 0 0 0 0 0 0
0 0 0 0 0 0 0 0 0 0 0 0 0 0 0 0 0 0 0 0 0 0 0 0 0 0 0 0 0 0 0 0 0 0 0 0 0 0 0 0 0 0 0 0
0 0 0 0 0 0 0 0 0 0 0 0 0 0 0 0 0 0 0 0 0 0 0 0 0 0 0 0 0 0 0 0 0 0 0 0 0 0 0 0 0 0 0 0
0 0 0 0 0 0 0 0 0 0 0 0 0 0 0 0 0 0 0 0 0 0 0 0 0 0 0 0 0 0 0 0 0 0 0 0 0 0 0 0 0 0 0 0
0 0 0 0 0 0 0 0 0 0 0 0 0 0 0 0 0 0 0 0 0 0 0 0 0 0 0 0 0 0 0 0 0 0 0 0 0 0 0 0 0 0 0 0
0 0 0 0 0 0 0 0 0 0 0 0 0 0 0 0 0 0 0 0 0 0 0 0 0 0 0 0 0 0 0 0 0 0 0 0 0 0 0 0 0 0 0 0
0 0 0 0 0 0 0 0 0 0 0 0 0 0 0 0 0 0 0 0 0 0 0 0 0 0 0 0 0 0 0 0 0 0 0 0 0 0 0 0 0 0 0 0
0 0 0 0 0 0 0 0 0 0 0 0 0 0 0 0 0 0 0 0 0 0 0 0 0 0 0 0 0 0 0 0 0 0 0 0 0 0 0 0 0 0 0 0
0 0 0 0 0 0 0 0 0 0 0 0 0 0 0 0 0 0 0 0 0 0 0 0 0 0 0 0 0 0 0 0 0 0 0 0 0 0 0 0 0 0 0 0
0 0 0 0 0 0 0 0 0 0 0 0 0 0 0 0 0 0 0 0 0 0 0 0 0 0 0 0 0 0 0 0 0 0 0 0 0 0 0 0 0 0 0 0
0 0 0 0 0 0 0 0 0 0 0 0 0 0 0 0 0 0 0 0 0 0 0 0 0 0 0 0 0 0 0 0 0 0 0 0 0 0 0 0 0 0 0 0
0 0 0 0 0 0 0 0 0 0 0 0 0 0 0 0 0 0 0 0 0 0 0 0 0 0 0 0 0 0 0 0 0 0 0 0 0 0 0 0 0 0 0 0
0 0 0 0 0 0 0 0 0 0 0 0 0 0 0 0 0 0 0 0 0 0 0 0 0 0 0 0 0 0 0 0 0 0 0 0 0 0 0 0 0 0 0 0
0 0 0 0 0 0 0 0 0 0 0 0 0 0 0 0 0 0 0 0 0 0 0 0 0 0 0 0 0 0 0 0 0 0 0 0 0 0 0 0 0 0 0 0
0 0 0 0 0 0 0 0 0 0 0 0 0 0 0 0 0 0 0 0 0 0 0 0 0 0 0 0 0 0 0 0 0 0 0 0 0 0 0 0 0 0 0 0
0 0 0 0 0 0 0 0 0 0 0 0 0 0 0 0 0 0 0 0 0 0 0 0 0 0 0 0 0 0 0 0 0 0 0 0 0 0 0 0 0 0 0 0
0 0 0 0 0 0 0 0 0 0 0 0 0 0 0 0 0 0 0 0 0 0 0 0 0 0 0 0 0 0 0 0 0 0 0 0 0 0 0 0 0 0 0 0
0 0 0 0 0 0 0 0 0 0 0 0 0 0 0 0 0 0 0 0 0 0 0 0 0 0 0 0 0 0 0 0 0 0 0 0 0 0 0 0 0 0 0 0
0 0 0 0 0 0 0 0 0 0 0 0 0 0 0 0 0 0 0 0 0 0 0 0 0 0 0 0 0 0 0 0 0 0 0 0 0 0 0 0 0 0 0 0
0 0 0 0 0 0 0 0 0 0 0 0 0 0 0 0 0 0 0 0 0 0 0 0 0 0 0 0 0 0 0 0 0 0 0 0 0 0 0 0 0 0 0 0
0 0 0 0 0 0 0 0 0 0 0 0 0 0 0 0 0 0 0 0 0 0 0 0 0 0 0 0 0 0 0 0 0 0 0 0 0 0 0 0 0 0 0 0
0 0 0 0 0 0 0 0 0 0 0 0 0 0 0 0 0 0 0 0 0 0 0 0 0 0 0 0 0 0 0 0 0 0 0 0 0 0 0 0 0 0 0 0
0 0 0 0 0 0 0 0 0 0 0 0 0 0 0 0 0 0 0 0 0 0 0 0 0 0 0 0 0 0 0 0 0 0 0 0 0 0 0 0 0 0 0 0
0 0 0 0 0 0 0 0 0 0 0 0 0 0 0 0 0 0 0 0 0 0 0 0 0 0 0 0 0 0 0 0 0 0 0 0 0 0 0 0 0 0 0 0
0 0 0 0 0 0 0 0 0 0 0 0 0 0 0 0 0 0 0 0 0 0 0 0 0 0 0 0 0 0 0 0 0 0 0 0 0 0 0 0 0 0 0 0
Wind_Speed
5 5 4 6 7 9 12 11 10 11 13 19 16 15 12 9 11 11 11 11 10 7 4 3 3 3 3 4 5 7 9 10 10 11 11 12 12 13 13 13 14 13 13 11
4 5 6 8 11 12 13 14 17 19 22 17 12 7 7 8 10 11 11 10 8 6 5 4 4 5 6 7 7 9 10 10 11 12 13 13 13 14 14 13 12 12 11 10
3 4 3 8 11 12 9 9 10 14 13 10 10 8 5 7 9 9 10 9 7 6 5 5 5 7 8 8 9 11 11 12 12 13 14 14 14 14 14 12 11 11 9 8
3 3 5 6 2 6 8 10 11 10 10 9 7 2 2 4 6 7 8 7 7 6 6 7 7 9 10 11 11 12 13 13 13 14 14 13 13 13 11 10 9 7 7 6
2 3 7 7 3 3 4 6 6 8 9 7 3 1 1 4 5 6 6 6 6 6 7 8 9 9 12 12 12 13 13 13 13 13 13 13 12 11 9 8 7 5 5 4
2 3 5 4 2 2 2 5 4 5 7 5 3 3 2 4 5 5 6 6 6 7 8 9 8 10 13 12 13 13 12 12 12 12 12 11 10 8 6 6 5 4 4 3
5 5 8 7 3 3 2 5 2 3 5 3 2 1 2 3 4 5 6 7 7 8 8 8 8 11 13 12 12 11 11 12 11 10 10 9 8 6 5 5 5 5 5 4
6 6 9 5 3 4 6 3 2 2 2 2 4 5 5 4 5 5 6 7 7 8 8 8 8 11 12 11 10 10 11 11 10 9 7 7 6 5 5 5 6 5 4 4
8 9 6 2 4 3 1 2 2 1 2 6 6 6 6 5 5 6 6 6 7 8 8 8 7 9 11 9 9 10 10 9 8 8 7 6 5 5 5 4 4 3 3 2
5 8 7 5 3 2 2 2 2 2 4 6 7 8 7 6 6 6 6 6 7 8 8 7 7 8 8 8 8 9 9 8 7 7 6 5 4 4 4 3 3 3 2 1
5 6 4 4 4 3 1 1 2 3 4 6 9 8 7 7 7 6 6 6 6 7 8 8 7 8 7 7 8 9 8 7 6 5 5 5 4 3 3 2 3 3 2 1
6 5 4 4 3 3 3 3 4 5 5 6 7 9 8 7 7 7 7 7 7 7 8 7 7 7 6 6 7 8 7 6 4 4 4 4 4 4 6 5 6 5 2 1
3 2 2 1 1 2 3 3 4 5 6 7 7 8 8 7 7 7 7 8 8 7 7 8 7 7 5 6 6 7 7 5 4 4 4 3 3 3 2 4 7 8 8 7
1 1 1 2 2 3 4 5 5 5 6 7 7 7 8 7 8 8 8 7 8 8 7 7 8 6 5 6 7 7 6 6 5 3 3 3 3 2 2 2 2 3 5 8
4 3 2 2 4 4 5 6 7 6 6 7 7 8 9 9 9 8 8 8 9 8 7 7 8 5 5 6 7 7 5 4 4 3 3 3 3 2 2 2 1 2 2 4
5 3 1 3 5 5 6 7 7 7 7 7 8 8 8 8 8 8 7 8 9 9 7 7 7 5 5 6 7 5 4 8 6 3 3 3 2 2 1 1 2 2 3 3
3 3 2 3 5 6 7 7 7 8 8 8 9 9 10 10 10 8 7 6 6 6 6 7 6 5 5 6 6 4 4 5 7 4 2 2 1 1 1 1 2 2 3 5
6 7 6 6 7 8 8 7 8 9 8 8 10 10 11 11 11 10 9 8 8 6 5 5 6 6 6 5 5 4 4 3 3 2 1 1 1 1 1 2 2 3 3 5
7 6 5 5 6 7 7 8 9 9 9 10 11 10 9 8 9 10 10 10 10 8 5 5 11 7 6 6 6 4 4 3 3 2 1 2 2 1 2 2 3 3 4 4
7 5 4 1 2 5 6 7 9 9 9 10 10 10 9 9 10 10 9 7 5 4 7 8 7 5 5 6 7 3 4 3 2 1 1 1 1 2 2 3 3 4 4 4
7 6 3 1 1 3 5 8 9 10 10 11 11 11 10 10 10 10 9 6 4 6 8 11 6 5 4 5 6 3 3 3 2 1 0 1 1 2 2 3 4 4 5 5
6 5 3 2 2 2 3 6 7 9 10 10 9 9 10 10 9 7 5 5 7 12 7 5 4 7 8 7 3 3 3 2 1 1 0 1 2 2 3 4 4 4 4 5
5 4 3 2 1 2 3 4 6 8 9 10 11 12 12 10 9 8 7 5 7 12 8 5 8 11 11 5 3 3 2 2 1 1 1 2 2 3 3 4 4 4 5 5
5 5 4 2 1 2 3 3 4 4 6 7 7 8 9 8 5 3 3 13 15 13 6 9 13 12 10 4 3 3 2 1 1 1 2 2 3 3 3 4 4 5 5 6
4 4 3 2 1 1 2 2 3 4 6 5 6 7 6 5 5 6 6 9 15 13 6 10 13 11 6 3 3 2 2 2 2 3 2 3 3 3 4 4 4 5 5 6
4 4 3 3 2 2 2 3 3 4 5 5 5 5 5 4 6 6 6 7 10 12 7 5 6 7 4 3 3 2 2 2 2 2 2 3 4 4 4 5 6 5 6 6
4 3 2 2 1 2 2 3 4 5 5 6 6 6 6 6 7 7 8 7 7 7 5 5 4 4 4 3 2 2 2 2 2 3 3 3 4 4 5 6 5 6 6 7
Wind_Direction
238 237 212 216 215 202 208 215 231 252 264 280 292 301 308 318 323 323 325 326 327 325 329 347 9 26 56 72 82 97 103 106 108 111 112 112 112 113 112 110 109 108 106 103
283 256 231 241 235 224 228 232 243 262 274 277 287 301 320 334 333 331 332 334 342 356 10 25 41 57 65 73 80 91 97 100 104 106 106 105 105 104 102 100 101 102 103 104
281 310 329 262 231 212 212 217 221 247 259 284 301 316 332 334 334 336 340 348 4 13 28 44 60 73 77 78 83 88 92 95 97 100 99 99 101 99 98 99 99 98 100 107
285 325 252 249 238 189 214 240 232 247 269 287 299 316 63 3 342 347 354 4 17 30 46 54 66 74 80 82 86 89 89 91 93 96 96 96 96 96 96 97 98 102 111 117
250 276 279 283 247 198 221 269 235 240 267 288 323 209 134 28 12 11 11 21 34 48 64 69 74 83 88 87 88 90 91 92 93 95 97 97 97 96 97 101 104 108 113 125
228 265 259 258 250 156 144 272 244 234 266 291 316 290 318 40 31 34 34 37 47 58 68 73 76 87 91 90 90 90 93 93 92 95 97 98 99 99 100 106 111 113 105 106
223 250 267 258 246 132 236 265 259 236 255 259 219 203 105 83 64 58 55 55 61 66 68 70 79 90 92 93 93 94 95 95 93 93 98 101 100 101 107 105 100 93 86 68
195 220 253 253 180 204 240 272 273 249 219 160 136 120 114 105 94 87 80 74 76 78 74 71 82 93 95 94 97 99 98 97 97 97 100 103 102 97 95 98 92 86 82 66
202 222 240 236 227 247 259 267 261 210 166 145 141 140 130 120 112 109 104 96 92 93 88 82 87 99 103 103 106 104 101 99 99 94 89 94 99 98 89 85 89 85 82 70
246 258 258 254 242 241 234 244 243 183 161 153 146 143 137 130 123 121 118 114 111 107 104 100 99 101 106 113 113 109 105 100 97 95 89 81 82 88 92 93 93 91 88 74
252 270 288 264 226 210 185 151 130 129 146 150 145 146 144 138 132 128 124 121 119 116 113 111 109 106 109 114 114 109 103 99 93 90 94 85 76 79 94 103 138 139 164 195
235 240 229 250 211 175 176 182 161 141 131 139 148 147 142 138 134 130 127 123 119 116 116 114 111 107 104 108 114 115 108 98 93 92 88 86 83 62 61 71 69 72 80 30
255 283 244 231 158 164 168 161 150 148 148 143 141 142 139 134 132 130 130 129 128 125 121 118 112 105 102 103 105 108 113 110 101 97 96 94 91 91 63 33 42 40 26 12
339 45 244 219 204 157 138 126 120 118 127 134 134 135 133 129 132 133 133 131 125 120 116 114 109 102 101 105 105 104 105 111 109 103 103 101 99 93 84 60 15 351 358 359
340 319 255 169 132 129 128 128 129 134 134 131 134 139 141 140 139 134 129 127 122 118 117 116 113 109 107 110 111 111 110 109 108 105 100 97 94 88 74 56 24 339 327 337
326 340 112 154 166 162 156 157 159 161 154 146 145 144 139 133 129 126 128 135 136 135 133 127 123 125 119 115 113 110 116 125 119 109 99 93 86 79 58 27 360 341 329 317
305 283 238 220 205 196 190 183 174 167 161 156 151 142 135 132 129 128 123 117 120 123 127 131 130 126 121 121 120 117 111 119 117 106 100 101 93 67 25 354 334 323 312 316
271 262 246 231 215 204 196 183 172 167 164 156 147 146 149 151 151 145 136 126 117 108 110 124 129 124 121 123 122 122 119 116 116 115 105 100 92 43 1 337 326 321 313 319
305 288 268 238 213 197 186 177 169 162 155 154 157 158 155 151 148 146 144 144 146 147 157 155 143 130 129 137 130 119 120 117 109 99 79 56 53 7 343 327 318 312 312 317
332 329 321 280 186 174 170 162 156 157 159 159 156 153 152 153 152 152 152 157 168 159 152 149 138 133 133 140 132 119 122 122 121 113 85 33 347 328 324 321 318 312 311 311
340 343 352 24 108 142 157 158 160 163 164 165 167 167 162 157 158 158 158 160 167 151 153 153 145 144 142 141 132 123 125 128 131 135 127 317 314 312 314 315 314 312 310 310
342 347 358 29 94 123 146 156 159 162 165 167 164 157 157 161 163 164 168 164 162 163 154 150 151 159 156 142 128 133 137 142 148 163 241 288 296 300 300 301 298 299 299 298
343 345 353 4 90 143 144 157 165 170 172 172 170 171 172 170 171 170 173 166 160 165 156 161 169 164 153 140 139 144 152 163 181 219 257 272 277 280 285 290 290 291 293 294
341 344 342 349 60 140 164 174 168 165 163 163 168 168 165 162 169 175 146 163 170 166 162 172 169 164 154 143 149 156 169 188 217 251 266 273 276 278 279 283 287 288 287 290
330 330 331 332 283 218 190 156 142 148 152 155 158 159 161 162 163 162 155 163 169 161 161 174 169 163 151 153 162 172 187 215 229 242 251 268 275 278 278 279 279 284 286 286
319 313 300 283 267 230 190 174 175 173 165 163 164 160 152 140 139 147 153 158 162 162 159 153 154 156 155 164 171 184 202 245 289 287 270 273 275 277 278 280 283 281 282 283
311 306 302 302 280 223 201 195 190 188 183 177 171 167 161 155 154 156 155 156 155 155 153 150 149 153 162 169 180 194 211 234 254 264 269 269 270 271 275 278 279 281 282 283